TimeCST,TemperatureF,Dew PointF,Humidity,Sea Level PressureIn,VisibilityMPH,Wind Direction,Wind SpeedMPH,Gust SpeedMPH,PrecipitationIn,Events,Conditions,WindDirDegrees,DateUTC
12:54 AM,8.1,1.9,76,30.39,10.0,SSE,5.8,-,N/A,,Clear,160,2013-01-14 06:54:00
1:54 AM,7.0,1.0,77,30.40,10.0,Calm,Calm,-,N/A,,Clear,0,2013-01-14 07:54:00
2:54 AM,7.0,1.9,80,30.42,10.0,Calm,Calm,-,N/A,,Clear,0,2013-01-14 08:54:00
3:54 AM,7.0,1.9,80,30.43,10.0,SSW,4.6,-,N/A,,Clear,200,2013-01-14 09:54:00
4:54 AM,8.1,1.9,76,30.42,10.0,South,5.8,-,N/A,,Clear,180,2013-01-14 10:54:00
5:54 AM,6.1,1.0,80,30.43,10.0,South,4.6,-,N/A,,Clear,190,2013-01-14 11:54:00
6:54 AM,5.0,-0.0,80,30.47,10.0,South,3.5,-,N/A,,Clear,180,2013-01-14 12:54:00
7:54 AM,6.1,1.0,80,30.49,10.0,South,5.8,-,N/A,,Clear,180,2013-01-14 13:54:00
8:54 AM,10.0,5.0,80,30.50,10.0,SSW,3.5,-,N/A,,Clear,210,2013-01-14 14:54:00
9:54 AM,15.1,8.1,74,30.51,10.0,SSW,3.5,-,N/A,,Clear,210,2013-01-14 15:54:00
10:54 AM,19.0,10.0,68,30.50,10.0,Calm,Calm,-,N/A,,Clear,0,2013-01-14 16:54:00
11:54 AM,21.9,10.9,63,30.46,10.0,South,4.6,-,N/A,,Clear,190,2013-01-14 17:54:00
2:54 PM,28.0,12.0,51,30.40,10.0,SW,5.8,-,N/A,,Clear,230,2013-01-14 20:54:00
3:54 PM,28.0,12.9,53,30.40,10.0,SSW,8.1,-,N/A,,Clear,200,2013-01-14 21:54:00
4:54 PM,27.0,14.0,58,30.39,10.0,SSW,5.8,-,N/A,,Partly Cloudy,200,2013-01-14 22:54:00
5:54 PM,23.0,16.0,74,30.40,10.0,South,6.9,-,N/A,,Scattered Clouds,190,2013-01-14 23:54:00
6:54 PM,21.0,14.0,74,30.41,10.0,South,9.2,-,N/A,,Scattered Clouds,180,2013-01-15 00:54:00
7:54 PM,19.9,12.9,74,30.41,10.0,SSW,6.9,-,N/A,,Overcast,200,2013-01-15 01:54:00
8:54 PM,18.0,12.0,78,30.41,10.0,South,6.9,-,N/A,,Overcast,180,2013-01-15 02:54:00
9:54 PM,16.0,10.0,77,30.40,10.0,South,6.9,-,N/A,,Clear,170,2013-01-15 03:54:00
10:54 PM,17.1,10.0,74,30.39,10.0,South,8.1,-,N/A,,Partly Cloudy,170,2013-01-15 04:54:00
11:54 PM,15.1,9.0,77,30.38,10.0,South,4.6,-,N/A,,Clear,170,2013-01-15 05:54:00